| time (UTC) | temp F | wind direction | speed knots | gust knots | rain 1hr in | rain 24hr in | rain mn in | humidity % | barometer mb |
| 20260503021323 | 53 | 262 | 0.9 | 1.7 | 0.00 | 2.36 | 0.60 | 93 | 1015.3 |
| 20260503020316 | 54 | 289 | 1.7 | 2.6 | 0.00 | 2.36 | 0.60 | 93 | 1015.3 |
| 20260503015316 | 54 | 285 | 1.7 | 2.6 | 0.00 | 2.36 | 0.60 | 93 | 1015.2 |
| 20260503014309 | 54 | 284 | 1.7 | 2.6 | 0.00 | 2.36 | 0.60 | 93 | 1015.0 |
| 20260503013328 | 54 | 287 | 0.9 | 1.7 | 0.00 | 2.36 | 0.60 | 93 | 1014.8 |
| 20260503012321 | 55 | 287 | 0.9 | 1.7 | 0.00 | 2.36 | 0.60 | 92 | 1014.6 |
| 20260503011342 | 55 | 293 | 0.9 | 1.7 | 0.00 | 2.36 | 0.60 | 93 | 1014.6 |
| 20260503010316 | 55 | 300 | 0.9 | 1.7 | 0.00 | 2.36 | 0.60 | 92 | 1014.4 |
| 20260503005311 | 55 | 300 | 0.9 | 1.7 | 0.00 | 2.36 | 0.60 | 92 | 1014.1 |
| 20260503004318 | 55 | 309 | 0.9 | 1.7 | 0.00 | 2.36 | 0.60 | 92 | 1014.1 |
| 20260503003340 | 55 | 329 | 0.9 | 1.7 | 0.00 | 2.36 | 0.60 | 92 | 1014.0 |
| 20260503002337 | 55 | 339 | 0.0 | 0.9 | 0.00 | 2.36 | 0.60 | 91 | 1013.7 |
| 20260503001316 | 56 | 319 | 0.0 | 1.7 | 0.00 | 2.36 | 0.60 | 91 | 1013.6 |
| 20260503000313 | 56 | 326 | 0.9 | 2.6 | 0.00 | 2.36 | 0.60 | 91 | 1013.6 |
| 20260502235309 | 56 | 329 | 1.7 | 2.6 | 0.00 | 2.36 | 0.60 | 91 | 1013.2 |
| 20260502234313 | 56 | 332 | 0.0 | 1.7 | 0.00 | 2.36 | 0.60 | 91 | 1013.3 |
| 20260502233328 | 56 | 328 | 0.9 | 2.6 | 0.00 | 2.36 | 0.60 | 91 | 1013.2 |
| 20260502232331 | 56 | 355 | 0.9 | 2.6 | 0.00 | 2.36 | 0.60 | 91 | 1013.0 |
| 20260502231309 | 56 | 5 | 0.0 | 1.7 | 0.00 | 2.36 | 0.60 | 91 | 1012.9 |
| 20260502230327 | 56 | 355 | 0.9 | 1.7 | 0.00 | 2.36 | 0.60 | 91 | 1013.0 |
| 20260502225327 | 56 | 13 | 0.0 | 2.6 | 0.00 | 2.36 | 0.60 | 91 | 1013.3 |
| 20260502224323 | 56 | 335 | 1.7 | 2.6 | 0.00 | 2.36 | 0.60 | 91 | 1013.2 |
| 20260502223326 | 56 | 325 | 1.7 | 3.5 | 0.00 | 2.36 | 0.60 | 91 | 1013.1 |
| 20260502222339 | 56 | 335 | 1.7 | 3.5 | 0.00 | 2.36 | 0.60 | 91 | 1013.1 |
| 20260502221317 | 56 | 349 | 0.9 | 3.5 | 0.00 | 2.36 | 0.60 | 91 | 1012.9 |
| 20260502220313 | 56 | 11 | 1.7 | 4.3 | 0.00 | 2.36 | 0.60 | 91 | 1012.9 |
| 20260502215335 | 57 | 286 | 2.6 | 4.3 | 0.00 | 2.36 | 0.60 | 91 | 1012.9 |
| 20260502214315 | 56 | 330 | 0.9 | 3.5 | 0.00 | 2.36 | 0.60 | 91 | 1012.9 |
| 20260502213310 | 56 | 42 | 1.7 | 3.5 | 0.00 | 2.36 | 0.60 | 91 | 1012.6 |
| 20260502212312 | 56 | 50 | 2.6 | 5.2 | 0.00 | 2.36 | 0.60 | 91 | 1012.8 |
| 20260502211327 | 56 | 338 | 1.7 | 5.2 | 0.00 | 2.36 | 0.60 | 91 | 1012.9 |
| 20260502210331 | 57 | 19 | 1.7 | 7.0 | 0.00 | 2.36 | 0.60 | 91 | 1012.9 |
| 20260502205324 | 57 | 330 | 2.6 | 7.0 | 0.00 | 2.36 | 0.60 | 91 | 1012.9 |
| 20260502204327 | 57 | 329 | 2.6 | 5.2 | 0.00 | 2.36 | 0.60 | 91 | 1013.0 |
| 20260502203348 | 57 | 328 | 2.6 | 8.7 | 0.00 | 2.36 | 0.60 | 91 | 1012.7 |
| 20260502202321 | 57 | 342 | 2.6 | 7.0 | 0.00 | 2.36 | 0.60 | 92 | 1012.7 |
| 20260502201319 | 56 | 326 | 4.3 | 8.7 | 0.04 | 2.36 | 0.60 | 92 | 1013.0 |
| 20260502200321 | 56 | 317 | 1.7 | 7.0 | 0.04 | 2.36 | 0.60 | 93 | 1012.9 |
| 20260502195319 | 56 | 360 | 2.6 | 8.7 | 0.04 | 2.36 | 0.60 | 92 | 1012.9 |
| 20260502194313 | 56 | 330 | 3.5 | 8.7 | 0.08 | 2.36 | 0.60 | 92 | 1013.0 |
| 20260502193334 | 56 | 24 | 5.2 | 10.4 | 0.08 | 2.36 | 0.60 | 91 | 1013.1 |
| 20260502192334 | 56 | 297 | 3.5 | 7.0 | 0.12 | 2.36 | 0.60 | 93 | 1013.1 |
| 20260502191308 | 56 | 345 | 4.3 | 9.6 | 0.08 | 2.32 | 0.59 | 92 | 1013.1 |
| 20260502190322 | 56 | 20 | 2.6 | 9.6 | 0.08 | 2.32 | 0.59 | 93 | 1013.4 |
| 20260502185322 | 56 | 331 | 3.5 | 10.4 | 0.08 | 2.32 | 0.59 | 93 | 1013.4 |
| 20260502184341 | 56 | 45 | 3.5 | 7.8 | 0.08 | 2.28 | 0.58 | 92 | 1013.3 |
| 20260502183326 | 56 | 344 | 3.5 | 8.7 | 0.08 | 2.28 | 0.58 | 93 | 1013.4 |
| 20260502182323 | 56 | 40 | 1.7 | 7.0 | 0.08 | 2.24 | 0.57 | 94 | 1013.4 |
| 20260502181326 | 56 | 312 | 3.5 | 9.6 | 0.08 | 2.24 | 0.57 | 93 | 1013.1 |
| 20260502180340 | 56 | 344 | 3.5 | 9.6 | 0.08 | 2.24 | 0.57 | 93 | 1013.3 |
| 20260502170310 | 56 | 42 | 3.5 | 10.4 | 0.16 | 2.17 | 0.55 | 93 | 1013.4 |
| 20260502164326 | 56 | 330 | 3.5 | 10.4 | 0.28 | 2.17 | 0.55 | 94 | 1013.7 |
| 20260502163340 | 56 | 26 | 2.6 | 9.6 | 0.31 | 2.13 | 0.54 | 94 | 1013.6 |
| 20260502162321 | 56 | 355 | 2.6 | 7.8 | 0.31 | 2.09 | 0.53 | 94 | 1013.9 |
| 20260502161316 | 56 | 13 | 2.6 | 7.0 | 0.31 | 2.05 | 0.52 | 94 | 1014.2 |
| 20260502160336 | 56 | 333 | 3.5 | 7.8 | 0.31 | 2.01 | 0.51 | 93 | 1014.2 |
| 20260502152342 | 56 | 38 | 4.3 | 10.4 | 0.43 | 2.09 | 0.45 | 93 | 1014.2 |
| 20260502151319 | 55 | 5 | 3.5 | 7.8 | 0.51 | 2.05 | 0.44 | 94 | 1014.0 |
| 20260502150316 | 55 | 350 | 3.5 | 10.4 | 0.51 | 2.01 | 0.43 | 94 | 1013.9 |
| 20260502130343 | 55 | 326 | 3.5 | 7.8 | 0.20 | 1.42 | 0.25 | 93 | 1013.3 |
| 20260502123316 | 55 | 355 | 1.7 | 5.2 | 0.16 | 1.34 | 0.23 | 93 | 1013.3 |
| 20260502122316 | 56 | 297 | 2.6 | 5.2 | 0.16 | 1.30 | 0.22 | 93 | 1013.3 |
| 20260502121311 | 56 | 323 | 1.7 | 7.0 | 0.16 | 1.26 | 0.21 | 93 | 1013.2 |
| 20260502120333 | 56 | 302 | 1.7 | 4.3 | 0.12 | 1.22 | 0.20 | 93 | 1013.2 |
| 20260502115312 | 56 | 331 | 2.6 | 4.3 | 0.16 | 1.26 | 0.20 | 93 | 1013.0 |
| 20260502114312 | 56 | 355 | 1.7 | 5.2 | 0.20 | 1.26 | 0.20 | 93 | 1013.2 |
| 20260502113326 | 56 | 320 | 1.7 | 4.3 | 0.20 | 1.22 | 0.19 | 93 | 1013.2 |
| 20260502112328 | 56 | 300 | 0.9 | 3.5 | 0.20 | 1.18 | 0.18 | 93 | 1013.2 |
| 20260502111344 | 56 | 348 | 1.7 | 4.3 | 0.24 | 1.14 | 0.17 | 93 | 1013.2 |
| 20260502110325 | 56 | 337 | 0.9 | 2.6 | 0.35 | 1.14 | 0.17 | 93 | 1013.2 |
| 20260502105320 | 56 | 290 | 1.7 | 2.6 | 0.39 | 1.10 | 0.16 | 93 | 1013.2 |
| 20260502104323 | 56 | 299 | 2.6 | 4.3 | 0.43 | 1.06 | 0.15 | 93 | 1013.2 |
| 20260502103338 | 56 | 318 | 1.7 | 3.5 | 0.43 | 1.02 | 0.14 | 92 | 1013.2 |
| 20260502102318 | 56 | 284 | 0.9 | 3.5 | 0.43 | 0.94 | 0.12 | 92 | 1013.4 |
| 20260502101341 | 56 | 263 | 1.7 | 5.2 | 0.35 | 0.87 | 0.10 | 92 | 1013.3 |
| 20260502100311 | 56 | 289 | 1.7 | 5.2 | 0.31 | 0.79 | 0.08 | 91 | 1013.3 |
| 20260502091316 | 57 | 304 | 0.9 | 1.7 | 0.04 | 0.51 | 0.01 | 89 | 1013.3 |
| 20260502090336 | 57 | 303 | 0.9 | 1.7 | 0.00 | 0.47 | 0.00 | 88 | 1013.3 |
| 20260502071311 | 57 | 313 | 0.9 | 1.7 | 0.00 | 0.47 | 0.00 | 88 | 1012.5 |
| 20260502070334 | 57 | 288 | 0.9 | 3.5 | 0.00 | 0.47 | 0.00 | 88 | 1012.5 |
| 20260502065326 | 57 | 296 | 0.9 | 1.7 | 0.00 | 0.47 | 0.00 | 88 | 1012.5 |
| 20260502064320 | 57 | 317 | 0.9 | 2.6 | 0.00 | 0.47 | 0.00 | 88 | 1012.6 |
| 20260502063319 | 57 | 314 | 0.9 | 2.6 | 0.00 | 0.47 | 0.00 | 88 | 1012.7 |
| 20260502062314 | 57 | 321 | 0.9 | 2.6 | 0.00 | 0.47 | 0.00 | 88 | 1012.7 |
| 20260502061333 | 57 | 313 | 0.9 | 1.7 | 0.00 | 0.47 | 0.00 | 87 | 1013.0 |
| 20260502060327 | 57 | 336 | 0.9 | 2.6 | 0.00 | 0.47 | 0.00 | 87 | 1013.0 |
| 20260502055346 | 57 | 296 | 0.9 | 2.6 | 0.00 | 0.47 | 0.00 | 87 | 1013.2 |
| 20260502054319 | 57 | 288 | 0.9 | 3.5 | 0.00 | 0.47 | 0.00 | 87 | 1013.3 |
| 20260502053316 | 57 | 321 | 0.9 | 3.5 | 0.00 | 0.47 | 0.00 | 87 | 1013.5 |
| 20260502052318 | 57 | 316 | 1.7 | 3.5 | 0.00 | 0.47 | 0.00 | 87 | 1013.4 |
| 20260502051309 | 57 | 335 | 1.7 | 2.6 | 0.00 | 0.47 | 0.00 | 87 | 1013.3 |
| 20260502050330 | 57 | 344 | 0.9 | 1.7 | 0.00 | 0.47 | 0.00 | 87 | 1013.4 |
| 20260502045357 | 57 | 309 | 0.0 | 1.7 | 0.00 | 0.47 | 0.00 | 87 | 1013.6 |
| 20260502044316 | 57 | 327 | 0.9 | 1.7 | 0.00 | 0.47 | 0.00 | 87 | 1013.8 |
| 20260502043335 | 57 | 329 | 0.9 | 1.7 | 0.00 | 0.47 | 0.00 | 87 | 1013.9 |
| 20260502042310 | 57 | 333 | 0.9 | 1.7 | 0.00 | 0.47 | 0.00 | 87 | 1013.8 |
| 20260502041311 | 57 | 331 | 0.9 | 2.6 | 0.00 | 0.47 | 0.00 | 87 | 1013.8 |
| 20260502040349 | 57 | 340 | 0.0 | 2.6 | 0.00 | 0.47 | 0.00 | 87 | 1013.9 |
| 20260502035323 | 57 | 355 | 0.9 | 2.6 | 0.00 | 0.47 | 0.12 | 87 | 1013.8 |
| 20260502034323 | 57 | 342 | 0.9 | 2.6 | 0.00 | 0.47 | 0.12 | 87 | 1014.0 |
| 20260502033322 | 57 | 355 | 1.7 | 3.5 | 0.00 | 0.47 | 0.12 | 87 | 1014.0 |
| 20260502032319 | 56 | 34 | 1.7 | 2.6 | 0.00 | 0.47 | 0.12 | 87 | 1014.0 |
| 20260502031326 | 56 | 11 | 1.7 | 2.6 | 0.00 | 0.47 | 0.12 | 87 | 1014.1 |
| 20260502030321 | 56 | 342 | 0.9 | 3.5 | 0.00 | 0.47 | 0.12 | 87 | 1014.3 |
| 20260502025316 | 56 | 9 | 1.7 | 3.5 | 0.00 | 0.47 | 0.12 | 87 | 1014.3 |
| 20260502024319 | 56 | 313 | 1.7 | 2.6 | 0.00 | 0.47 | 0.12 | 87 | 1014.3 |
| 20260502023315 | 56 | 337 | 0.9 | 3.5 | 0.00 | 0.47 | 0.12 | 86 | 1014.4 |
| 20260502022313 | 56 | 336 | 1.7 | 3.5 | 0.00 | 0.47 | 0.12 | 86 | 1014.6 |